Location: Unnamed
(42.1164°N, 2.7652°E)
Time: 20:45:19
(UTC+02:00)

ISS - Pass Details

Date: 14 May 2021
Orbit: 417 x 422 km, 51.6° (Epoch: 14 June)

Event Time Altitude Azimuth Distance (km) Brightness Sun altitude
Rises 22:45:34 0° 226° (SW) 2,350 0.1 -16.3°
Reaches altitude 10° 22:47:40 10° 222° (SW) 1,491 -1.0 -16.6°
Maximum altitude 22:50:58 61° 142° (SE) 479 -3.8 -17.0°
Drops below altitude 10° 22:54:18 10° 61° (ENE) 1,502 -1.1 -17.4°
Enters shadow 22:54:46 - 60° (ENE) 1,689 -0.8 -17.4°
